Home > Weather > Nanning > Past weeks

Flag for China Past Weather in Nanning, Guangxi, China — Yesterday and Last 2 Weeks

Now
79 °F

Partly cloudy.


Feels Like: 82 °F
Forecast: 75 / 88 °F
Wind: 1 mph from North

Location: Nanning Airport

Current Time: May 26, 2016 at 5:02:06 AM

Latest Report: May 26, 2016 at 4:00 AM


Visibility: N/A

Pressure: 29.68 "Hg

Humidity: 89%

Dew Point: 75 °F

Location of NanningLocation

Past Weather in Nanning — Graph

°F

Nanning Temperature Yesterday

Maximum temperature yesterday: 86 °F (at 3:00 PM)
Minimum temperature yesterday: 72 °F (at 12:00 AM)
Average temperature yesterday: 77 °F

High & Low Weather Summary for the Past Weeks

 TemperatureHumidityPressure
High90 °F (May 11, 2:00 PM)100% (May 24, 8:00 PM)30.07 "Hg (May 24, 8:00 PM)
Low61 °F (May 17, 6:00 AM)34% (May 16, 5:00 PM)29.62 "Hg (May 19, 4:00 PM)
Average77 °F76%29.80 "Hg
* Reported May 11 3:00 AM — May 26 3:00 AM, Nanning, Weather by CustomWeather, © 2016

Note: Actual official high and low records may vary slightly from our data, if they occured in-between our weather recording intervals... More about our weather records

Advertising

Nanning Weather History for the Previous 24 Hours

Scroll right to see more
 ConditionsComfort  
Time TempWeatherWind HumidityBarometerVisibility
3:00 AM
Thu, May 26
79 °FPartly cloudy.1 mph94%29.71 "HgN/A
2:00 AM79 °FPassing clouds.1 mph94%29.71 "HgN/A
1:00 AM79 °FPassing clouds.3 mph89%29.71 "HgN/A
12:00 AM79 °FPassing clouds.1 mph89%29.74 "HgN/A
11:00 PM
Wed, May 25
79 °FPassing clouds.3 mph89%29.74 "HgN/A
10:00 PM79 °FPassing clouds.1 mph89%29.71 "HgN/A
9:00 PM81 °FClear.3 mph89%29.68 "Hg10 mi
8:00 PM81 °FClear.6 mph89%29.68 "Hg10 mi
7:00 PM82 °FPassing clouds.1 mph84%29.65 "HgN/A
6:00 PM82 °FPassing clouds.3 mph84%29.62 "HgN/A
5:00 PM81 °FSprinkles. Broken clouds.3 mph89%29.62 "HgN/A
4:00 PM82 °FSprinkles. Fog.6 mph79%29.65 "Hg2 mi
3:00 PM86 °FFog.3 mph75%29.65 "Hg3 mi
2:00 PM84 °FFog.6 mph74%29.68 "Hg3 mi
1:00 PM81 °FFog.1 mph84%29.68 "Hg3 mi
12:00 PM79 °FFog.3 mph84%29.71 "Hg2 mi
11:00 AM75 °FFog.3 mph89%29.71 "Hg2 mi
10:00 AM73 °FFog.6 mph94%29.74 "Hg2 mi
9:00 AM73 °FFog.3 mph89%29.74 "Hg2 mi
8:00 AM72 °FFog.6 mph94%29.71 "Hg2 mi
7:00 AM72 °FFog.3 mph94%29.71 "Hg2 mi
6:00 AM72 °FFog.3 mph88%29.71 "Hg3 mi
5:00 AM72 °FMostly cloudy.1 mph88%29.71 "Hg4 mi
Weather by CustomWeather, © 2016

See weather overviewHow to use our weather pages